[[{"header":{"parameterUnit":"m.s-1","parameterCategory":1,"la1":30.2991,"la2":30.254,"lo1":-89.0895,"lo2":-89.0444,"dy":0.0017,"dx":0.0017,"nx":28,"ny":28,"refTime":"2025-04-14T21:00:00:Z","depth":0,"parameterNumber":2,"parameterNumberName":"U-component_of_WINDS"},"data":[0,0,0,0,0,0,0,0,0,0,0,0,0,0,0,0,0,0,0,0,0,0,0,0,0,0,0,0,0,0,0,0,0,0,0,0,0,0,0,0,0,0,0,0,0,0,0,0,0,0,0,0,0,0,0,0,0,0,3.6018,3.6019,0,3.6129,3.613,3.6131,3.6092,3.609,3.6087,3.6085,3.6199,3.6204,3.6209,0,0,0,0,0,0,0,0,0,0,0,0,0,3.5771,3.5776,3.6017,3.6019,3.602,3.6128,3.613,3.6131,3.6093,3.609,3.6087,3.6084,3.6197,3.6203,3.621,0,0,0,0,0,0,0,0,0,0,0,0,0,3.588,3.5778,3.6017,3.6014,3.6015,3.6128,3.613,3.6132,3.6093,3.6089,3.6086,3.6082,3.6195,3.6203,3.6211,3.6334,0,0,3.6235,3.6239,0,0,0,0,0,0,0,0,3.5874,3.5889,3.6013,3.6014,3.6015,3.6093,3.6085,3.62,3.6094,3.6063,3.6085,3.608,3.6167,3.6177,3.6206,3.634,3.6345,3.6236,3.6241,3.6244,3.6247,0,0,0,0,0,0,0,3.5866,3.5884,3.6061,3.6015,3.6016,3.6007,3.6018,3.6107,3.6134,3.6066,3.6063,3.6077,3.6167,3.6198,3.6208,3.6346,3.6236,3.6243,3.6248,3.6251,3.6585,3.6589,0,0,0,0,0,0,3.5858,3.5878,3.6058,3.6065,3.5934,3.6014,3.6027,3.6072,3.6133,3.6139,3.608,3.6075,3.6186,3.6199,3.6212,3.6359,3.6244,3.6252,3.6256,3.6581,3.6586,3.6591,0,0,0,0,0,0,3.5853,3.5875,3.6053,3.5971,3.5993,3.6022,3.6073,3.6076,3.6107,3.6144,3.6149,3.6107,3.6184,3.6201,3.6304,3.6363,3.6255,3.6263,3.6577,3.6583,3.6589,3.6655,0,0,0,0,0,0,3.5846,3.5873,3.592,3.5972,3.5997,3.6144,3.6077,3.6081,3.6121,3.6115,3.6171,3.6176,3.6182,3.6292,3.6312,3.6372,3.6269,3.6571,3.6579,3.6587,3.6648,3.6663,3.6676,0,0,0,0,0,3.5838,3.5935,3.5923,3.5945,3.6057,3.6147,3.6161,3.6166,3.6126,3.6174,3.6197,3.6175,3.6353,3.6303,3.6325,3.6388,3.6568,3.6577,3.6586,3.6642,3.666,3.6676,0,0,0,0,0,0,3.589,3.5942,3.5929,3.6046,3.6092,3.614,3.62,3.6186,3.6244,3.6236,3.624,3.6253,3.6358,3.6384,3.6327,3.651,3.6454,3.6468,3.6489,3.6507,3.6521,3.6512,3.6275,0,0,0,0,0,3.5915,3.5984,3.6026,3.6125,3.6149,3.6171,3.621,3.621,3.6258,3.6277,3.6308,3.6356,3.6423,3.6467,3.653,3.6652,3.6663,3.6706,3.672,3.6732,3.6743,3.6808,3.6827,3.6621,3.6621,3.6621,0,0,3.5967,3.6004,3.6048,3.6136,3.6172,3.6243,3.6188,3.6265,3.6317,3.6289,3.6388,3.6413,3.6466,3.6578,3.663,3.6603,3.6803,3.6743,3.6752,3.6757,3.6819,3.6839,3.6856,3.6627,3.6626,3.6625,0,0,3.6099,3.6134,3.622,3.6257,3.6312,3.6326,3.6347,3.6397,3.6412,3.6512,3.6491,3.6554,3.6669,3.6707,3.6742,3.6888,3.6869,3.6909,3.6981,3.7044,3.706,3.7075,3.7125,3.7143,3.6921,3.6921,3.6921,0,3.6157,3.6263,3.6266,3.6345,3.6384,3.6362,3.6449,3.6485,3.6558,3.6585,3.6554,3.6697,3.6732,3.6852,3.6888,3.6917,3.694,3.6902,3.7058,3.7072,3.7086,3.7134,3.7153,3.6925,3.6925,3.6924,3.6924,0,3.6331,3.6405,3.6468,3.6538,3.6584,3.6667,3.6683,3.6729,3.6725,3.6742,3.6843,3.6884,3.6954,3.6983,3.698,3.7104,3.7085,3.7056,3.7,3.711,3.7155,3.7173,3.6931,3.693,3.6928,3.6927,0,0,3.6497,3.6569,3.6591,3.6623,3.6682,3.6738,3.682,3.6889,3.6928,3.698,3.7047,3.7145,3.7118,3.7158,3.7159,3.7215,3.7325,3.7179,3.718,3.7203,3.7462,3.7482,3.7503,3.7314,3.7317,3.732,3.7457,0,3.6632,3.6774,3.678,3.691,3.6977,3.6957,3.7028,3.7072,3.709,3.715,3.717,3.7239,3.7199,3.7223,3.7277,3.73,3.7377,3.7291,3.7375,3.7378,3.7361,3.7527,3.7548,3.7675,3.7474,3.7477,3.748,0,3.6808,3.6864,3.7,3.7049,3.7077,3.7141,3.7204,3.7262,3.7311,3.732,3.7364,3.7357,3.7439,3.7382,3.7495,3.7436,3.7471,3.7488,3.7493,3.75,3.7434,3.7536,3.7716,3.7734,3.7508,3.7506,3.7504,0,3.6913,3.7023,3.7119,3.7146,3.7206,3.725,3.7277,3.7323,3.7363,3.7419,3.7445,3.751,3.7545,3.7595,3.7605,3.7562,3.7718,3.7662,3.7727,3.7727,3.7759,3.7757,3.7945,3.7785,3.7785,3.7785,3.7784,0,3.7062,3.7146,3.7166,3.7225,3.7318,3.7324,3.7416,3.744,3.748,3.7542,3.753,3.7589,3.7599,3.7661,3.7669,3.7761,3.7777,3.7786,3.7787,3.7787,3.7785,3.7808,3.7799,3.779,3.7789,3.7788,3.7787,0,3.7194,3.7212,3.7314,3.7362,3.7376,3.7443,3.7483,3.7539,3.7556,3.7635,3.7654,3.7681,3.7752,3.7768,3.7853,3.7858,3.7966,3.796,3.795,3.7948,3.8012,3.8005,3.8221,3.8248,3.8072,3.8074,3.8075,0,3.7287,3.7351,3.7406,3.7447,3.7475,3.7542,3.7583,3.7592,3.7635,3.7695,3.7744,3.7814,3.787,3.7984,3.8011,3.8075,3.8069,3.814,3.8078,3.8075,3.8068,3.8063,3.8069,3.8151,3.8153,3.8155,3.8156,0,3.7449,3.7455,3.7515,3.7579,3.7628,3.7679,3.7727,3.7761,3.7776,3.7826,3.7898,3.7942,3.8028,3.8097,3.8161,3.8188,3.8175,3.8175,3.8193,3.8192,3.8183,3.8187,3.7979,3.817,3.8169,3.8167,3.8167,3.8166,3.7564,3.7619,3.7666,3.7733,3.777,3.7815,3.787,3.7893,3.7954,3.8025,3.8026,3.8105,3.8152,3.8237,3.8268,3.8329,3.8307,3.8334,3.834,3.8346,3.8351,3.8175,3.8341,3.8341,3.8341,3.834,3.834,0,3.7723,3.7753,3.7815,3.7882,3.7935,3.7918,3.797,3.8015,3.8085,3.8129,3.8185,3.8268,3.8334,3.8366,3.8432,3.8475,3.847,3.8492,3.8488,3.8494,3.8368,3.8345,3.8495,3.8495,3.8495,3.8495,3.8495,3.8494,3.7812,3.7905,3.7916,3.8026,3.8055,3.8132,3.8163,3.8204,3.824,3.8333,3.8388,3.8409,3.8448,3.8517,3.8577,3.8585,3.8608,3.8633,3.8637,3.8519,3.8503,3.8488,3.8466,3.8639,3.8639,3.8758,3.8759,3.876]},{"header":{"parameterUnit":"m.s-1","parameterCategory":1,"la1":30.2991,"la2":30.254,"lo1":-89.0895,"lo2":-89.0444,"dy":0.0017,"dx":0.0017,"nx":28,"ny":28,"refTime":"2025-04-14T21:00:00:Z","depth":0,"parameterNumber":3,"parameterNumberName":"V-component_of_WINDS"},"data":[0,0,0,0,0,0,0,0,0,0,0,0,0,0,0,0,0,0,0,0,0,0,0,0,0,0,0,0,0,0,0,0,0,0,0,0,0,0,0,0,0,0,0,0,0,0,0,0,0,0,0,0,0,0,0,0,0,0,3.7957,3.7958,0,3.8041,3.8042,3.8043,3.8022,3.8021,3.8019,3.8018,3.8102,3.8105,3.8109,0,0,0,0,0,0,0,0,0,0,0,0,0,3.7776,3.778,3.7957,3.7958,3.796,3.8041,3.8042,3.8044,3.8023,3.8021,3.8019,3.8017,3.81,3.8105,3.8109,0,0,0,0,0,0,0,0,0,0,0,0,0,3.7857,3.7781,3.7957,3.7959,3.796,3.8041,3.8043,3.8044,3.8023,3.8021,3.8018,3.8016,3.8099,3.8104,3.811,3.8194,0,0,3.8127,3.813,0,0,0,0,0,0,0,0,3.7853,3.7864,3.7958,3.7959,3.796,3.8019,3.8009,3.8094,3.8024,3.7999,3.8018,3.8015,3.8076,3.8083,3.8104,3.8198,3.8201,3.8128,3.8131,3.8134,3.8135,0,0,0,0,0,0,0,3.7847,3.786,3.7991,3.7959,3.7961,3.7955,3.7964,3.8025,3.805,3.8001,3.8,3.801,3.8076,3.8099,3.8106,3.8203,3.8128,3.8133,3.8136,3.8138,3.8368,3.8371,0,0,0,0,0,0,3.7841,3.7855,3.7988,3.7993,3.7899,3.796,3.797,3.8003,3.805,3.8054,3.8012,3.8009,3.8091,3.81,3.8109,3.821,3.8134,3.8139,3.8142,3.8365,3.8369,3.8372,0,0,0,0,0,0,3.7837,3.7853,3.7985,3.7924,3.794,3.7966,3.8003,3.8006,3.8028,3.8058,3.8062,3.8031,3.8089,3.8101,3.8173,3.8212,3.8141,3.8147,3.8362,3.8366,3.837,3.8412,0,0,0,0,0,0,3.7832,3.7851,3.7884,3.7925,3.7944,3.8048,3.8005,3.8009,3.8038,3.8035,3.8077,3.8081,3.8088,3.8165,3.8179,3.8219,3.8151,3.8359,3.8364,3.8369,3.8407,3.8417,3.8426,0,0,0,0,0,3.7825,3.7892,3.7886,3.7902,3.7985,3.805,3.8061,3.8068,3.8042,3.8074,3.8093,3.808,3.8206,3.8172,3.8188,3.823,3.8356,3.8362,3.8368,3.8403,3.8415,3.8426,0,0,0,0,0,0,3.7855,3.7898,3.7891,3.7974,3.8009,3.8046,3.8088,3.808,3.8123,3.8118,3.8124,3.8134,3.8207,3.8226,3.8187,3.8313,3.8277,3.8287,3.8298,3.831,3.8319,3.8313,3.8156,0,0,0,0,0,3.7871,3.7921,3.7956,3.8025,3.8043,3.8063,3.8091,3.8093,3.8129,3.8144,3.8168,3.8203,3.825,3.8281,3.8326,3.841,3.8418,3.8447,3.8456,3.8463,3.8471,3.8516,3.8529,3.8392,3.8392,3.8391,0,0,3.7905,3.7935,3.7966,3.8032,3.8059,3.811,3.8075,3.813,3.8168,3.8152,3.8221,3.824,3.8279,3.8357,3.8393,3.8375,3.8511,3.8471,3.8477,3.8481,3.8524,3.8537,3.8548,3.8396,3.8395,3.8394,0,0,3.7993,3.8021,3.8081,3.8109,3.8151,3.8164,3.8178,3.8218,3.823,3.83,3.8289,3.8333,3.8414,3.8443,3.8468,3.8565,3.8554,3.858,3.8627,3.8671,3.8682,3.8691,3.8725,3.8738,3.8588,3.8588,3.8588,0,3.803,3.8106,3.8113,3.817,3.8198,3.8187,3.8248,3.8275,3.8329,3.8349,3.8329,3.843,3.8456,3.854,3.8564,3.8585,3.8601,3.8575,3.868,3.8689,3.8698,3.8731,3.8744,3.8591,3.859,3.859,3.859,0,3.8149,3.8202,3.8246,3.8299,3.8333,3.8391,3.8406,3.8439,3.8439,3.8453,3.8523,3.8554,3.8605,3.8625,3.8625,3.8709,3.8696,3.8678,3.8642,3.8714,3.8745,3.8757,3.8595,3.8594,3.8593,3.8592,0,0,3.8258,3.8314,3.833,3.8354,3.8399,3.844,3.8497,3.8547,3.8575,3.8613,3.866,3.873,3.8713,3.8741,3.8744,3.8782,3.8856,3.8759,3.876,3.8775,3.895,3.8963,3.8977,3.885,3.8852,3.8854,3.8946,0,3.8349,3.8451,3.8458,3.855,3.8598,3.8588,3.8638,3.867,3.8685,3.8728,3.8744,3.8793,3.8767,3.8784,3.8821,3.884,3.8891,3.8833,3.8893,3.8895,3.8883,3.8993,3.9008,3.9093,3.8958,3.896,3.8962,0,3.8469,3.8511,3.8607,3.8645,3.8666,3.871,3.8757,3.8798,3.8834,3.8842,3.8874,3.8871,3.8929,3.889,3.8969,3.8929,3.8954,3.8967,3.897,3.8976,3.8932,3.9001,3.9121,3.9134,3.8981,3.8979,3.8978,0,3.8538,3.8618,3.8686,3.8707,3.8753,3.8784,3.8805,3.8839,3.8868,3.8908,3.8927,3.8974,3.8999,3.9034,3.9043,3.9015,3.9122,3.9084,3.9129,3.9129,3.9152,3.915,3.9277,3.9169,3.9169,3.9168,3.9168,0,3.8638,3.8698,3.8717,3.8759,3.8825,3.8833,3.8897,3.8915,3.8946,3.899,3.8984,3.9025,3.9035,3.9079,3.9086,3.915,3.9161,3.9169,3.917,3.9169,3.9168,3.9185,3.9179,3.9172,3.9171,3.917,3.917,0,3.8726,3.8742,3.8815,3.8853,3.8864,3.891,3.8942,3.8982,3.8995,3.9052,3.9065,3.9087,3.9137,3.915,3.921,3.9215,3.929,3.9286,3.9278,3.9278,3.9321,3.9317,3.9463,3.9482,3.9362,3.9363,3.9364,0,3.8789,3.8835,3.8877,3.8907,3.8929,3.8977,3.9007,3.9016,3.9047,3.9092,3.9126,3.9176,3.9216,3.9297,3.9317,3.9363,3.9359,3.9407,3.9366,3.9363,3.9359,3.9356,3.936,3.9415,3.9416,3.9417,3.9418,0,3.8899,3.8905,3.8949,3.8996,3.9032,3.9069,3.9105,3.9129,3.9143,3.9179,3.9231,3.9262,3.9323,3.9372,3.9418,3.9438,3.943,3.9431,3.9443,3.9443,3.9436,3.944,3.9299,3.9427,3.9426,3.9426,3.9425,3.9425,3.8976,3.9015,3.9052,3.9101,3.9129,3.9162,3.9201,3.922,3.9263,3.9315,3.9317,3.9373,3.9407,3.9468,3.9491,3.9534,3.952,3.9538,3.9543,3.9547,3.955,3.943,3.9543,3.9542,3.9542,3.9542,3.9542,0,3.9085,3.9107,3.9153,3.9203,3.9241,3.9231,3.927,3.9303,3.9352,3.9385,3.9425,3.9484,3.9532,3.9556,3.9603,3.9633,3.963,3.9645,3.9642,3.9647,3.9561,3.9545,3.9646,3.9646,3.9646,3.9646,3.9646,3.9646,3.9146,3.9212,3.9222,3.9301,3.9323,3.9379,3.9402,3.9432,3.9458,3.9525,3.9565,3.958,3.961,3.9658,3.9701,3.9707,3.9724,3.974,3.9744,3.9664,3.9653,3.9643,3.9628,3.9744,3.9744,3.9826,3.9827,3.9827]}]]